Location: Waning Moon II Observatory
(30.3730°N, 89.7620°W)
Time: 19:19:27
(UTC-05:00)

Cosmos 1825 Rocket - Visible Passes

Search period start: 24 June 2017 00:00
Search period end: 04 July 2017 00:00
Orbit: 605 x 630 km, 82.5° (Epoch: 24 June)

Date Brightness Start Highest point End Pass type
(mag) Time Alt. Az. Time Alt. Az. Time Alt. Az.
24 Jun 6.9 21:00:49 10° W 21:02:14 11° WNW 21:03:40 10° NW visible
28 Jun 7.1 20:30:48 10° W 20:32:11 11° WNW 20:33:34 10° NW visible
30 Jun 6.8 05:22:56 10° NE 05:25:10 13° ENE 05:27:22 10° ESE visible
